Hourly Data Report for December 09, 2017

All times are specified in Local Standard Time (LST). Add 1 hour to adjust for Daylight Saving Time where and when it is observed.

REVELSTOKE A
BRITISH COLUMBIA

50°58'00.000" N
118°11'00.000" W
444.70 m
1176745
71685
YRV

Download Data

Hourly Data (December 2017)
Hourly Data Report for December 9, 2017
Temp Definition
°C
Dew Point Temp Definition
°C
Rel Hum Definition
%
Wind Dir Definition
10's deg

Wind Spd Definition
km/h
Visibility Definition
km
Stn Press Definition
kPa
Hmdx Definition


Wind Chill Definition


Weather Definition


TIME
00:00 Legend Double Dagger -2.8 -7.8 68 35 5 16.1 98.66   -5 LegendNANA
01:00 Legend Double Dagger -2.7 -6.7 74   0 16.1 98.67     LegendNANA
02:00 Legend Double Dagger -3.0 -7.7 70 LegendMM 4 16.1 98.65   -5 LegendNANA
03:00 Legend Double Dagger -3.0 -7.5 71   0 16.1 98.66     LegendNANA
04:00 Legend Double Dagger -3.0 -7.2 73   0 16.1 98.64     LegendNANA
05:00 Legend Double Dagger -3.1 -8.0 69 9 5 16.1 98.66   -5 LegendNANA
06:00 Legend Double Dagger -3.2 -7.9 70   0 16.1 98.68     LegendNANA
07:00 Legend Double Dagger -3.5 -8.0 71   0 16.1 98.66     LegendNANA
08:00 Legend Double Dagger -3.3 -8.0 70   0 16.1 98.65     LegendNANA
09:00 Legend Double Dagger -3.3 -8.2 69   0 16.1 98.68     LegendNANA
10:00 Legend Double Dagger -3.1 -8.0 69   0 16.1 98.69     LegendNANA
11:00 Legend Double Dagger -3.0 -8.5 66 10 5 16.1 98.66   -5 LegendNANA
12:00 Legend Double Dagger -2.9 -8.0 68   0 16.1 98.63     LegendNANA
13:00 Legend Double Dagger -2.7 -8.4 65   0 16.1 98.57     LegendNANA
14:00 Legend Double Dagger -2.5 -7.8 67 LegendMM 4 16.1 98.56   -4 LegendNANA
15:00 Legend Double Dagger -2.3 -7.4 68 LegendMM 4 16.1 98.54   -4 LegendNANA
16:00 Legend Double Dagger -2.3 -7.2 69   0 16.1 98.56     LegendNANA
17:00 Legend Double Dagger -2.3 -7.0 70   0 16.1 98.57     LegendNANA
18:00 Legend Double Dagger -2.2 -6.8 71 4 4 16.1 98.59   -4 LegendNANA
19:00 Legend Double Dagger -2.2 -6.4 73   0 16.1 98.60     LegendNANA
20:00 Legend Double Dagger -2.2 -6.1 75   0 16.1 98.59     LegendNANA
21:00 Legend Double Dagger -2.4 -6.0 77   0 16.1 98.58     LegendNANA
22:00 Legend Double Dagger -2.6 -6.8 73   0 16.1 98.58     LegendNANA
23:00 Legend Double Dagger -2.7 -6.4 76   0 16.1 98.59     LegendNANA

Notes on Data Quality.

Legend

  • E = Estimated
  • M = Missing
  • NA = Not Available
  • ‡ = Partner data that is not subject to review by the National Climate Archives
Date modified: